QPF
0.00 0.00 0.00 0.00 0.00 0.00 0.00 0.00 0.00 0.00 0.00 0.00 0.00 0.00 0.00 0.00 0.00 0.00 0.00 0.00 0.00 0.00 0.00 0.00 0.00 0.00 0.00 0.00 0.00 0.00 0.00 0.00 0.00 0.00 0.00 0.00 0.00 0.00 0.00 0.00 0.00 0.00 0.00 0.00 0.00
0.00 0.00 0.00 0.00 0.00 0.00 0.00 0.00 0.00 0.00 0.00 0.00 0.00 0.00 0.00 0.00 0.00 0.00 0.00 0.00 0.00 0.00 0.00 0.00 0.00 0.00 0.00 0.00 0.00 0.00 0.00 0.00 0.00 0.00 0.00 0.00 0.00 0.00 0.00 0.00 0.00 0.00 0.00 0.00 0.00
0.00 0.00 0.00 0.00 0.00 0.00 0.00 0.00 0.00 0.00 0.00 0.00 0.00 0.00 0.00 0.00 0.00 0.00 0.00 0.00 0.00 0.00 0.00 0.00 0.00 0.00 0.00 0.00 0.00 0.00 0.00 0.00 0.00 0.00 0.00 0.00 0.00 0.00 0.00 0.00 0.00 0.00 0.00 0.00 0.00
0.00 0.00 0.00 0.00 0.00 0.00 0.00 0.00 0.00 0.00 0.00 0.00 0.00 0.00 0.00 0.00 0.00 0.00 0.00 0.00 0.00 0.00 0.00 0.00 0.00 0.00 0.00 0.00 0.00 0.00 0.00 0.00 0.00 0.00 0.00 0.00 0.00 0.00 0.00 0.00 0.00 0.00 0.00 0.00 0.00
0.00 0.00 0.00 0.00 0.00 0.00 0.00 0.00 0.00 0.00 0.00 0.00 0.00 0.00 0.00 0.00 0.00 0.00 0.00 0.00 0.00 0.00 0.00 0.00 0.00 0.00 0.00 0.00 0.00 0.00 0.00 0.00 0.00 0.00 0.00 0.00 0.00 0.00 0.00 0.00 0.00 0.00 0.00 0.00 0.00
0.00 0.00 0.00 0.00 0.00 0.00 0.00 0.00 0.00 0.00 0.00 0.00 0.00 0.00 0.00 0.00 0.00 0.00 0.00 0.00 0.00 0.00 0.00 0.00 0.00 0.00 0.00 0.00 0.00 0.00 0.00 0.00 0.00 0.00 0.00 0.00 0.00 0.00 0.00 0.00 0.00 0.00 0.00 0.00 0.00
0.00 0.00 0.00 0.00 0.00 0.00 0.00 0.00 0.00 0.00 0.00 0.00 0.00 0.00 0.00 0.00 0.00 0.00 0.00 0.00 0.00 0.00 0.00 0.00 0.00 0.00 0.00 0.00 0.00 0.00 0.00 0.00 0.00 0.00 0.00 0.00 0.00 0.00 0.00 0.00 0.00 0.00 0.00 0.00 0.02
0.00 0.00 0.00 0.00 0.00 0.00 0.00 0.00 0.00 0.00 0.00 0.00 0.00 0.00 0.00 0.00 0.00 0.00 0.00 0.00 0.00 0.00 0.00 0.00 0.00 0.00 0.00 0.00 0.00 0.00 0.00 0.00 0.00 0.00 0.00 0.00 0.00 0.00 0.00 0.00 0.00 0.00 0.00 0.00 0.01
0.00 0.00 0.00 0.00 0.00 0.00 0.00 0.00 0.00 0.00 0.00 0.00 0.00 0.00 0.00 0.00 0.00 0.00 0.00 0.00 0.00 0.00 0.00 0.00 0.00 0.00 0.00 0.00 0.00 0.00 0.00 0.00 0.00 0.00 0.00 0.00 0.00 0.00 0.00 0.00 0.00 0.00 0.00 0.00 0.01
0.00 0.00 0.00 0.00 0.00 0.00 0.00 0.00 0.00 0.00 0.00 0.00 0.00 0.00 0.00 0.00 0.00 0.00 0.00 0.00 0.00 0.00 0.00 0.00 0.00 0.00 0.00 0.00 0.00 0.00 0.00 0.00 0.00 0.00 0.00 0.00 0.00 0.01 0.00 0.01 0.00 0.00 0.00 0.00 0.00
0.00 0.00 0.00 0.00 0.00 0.00 0.00 0.00 0.00 0.00 0.00 0.00 0.00 0.00 0.00 0.00 0.00 0.00 0.00 0.00 0.00 0.00 0.00 0.00 0.00 0.00 0.00 0.00 0.00 0.00 0.00 0.00 0.00 0.00 0.00 0.00 0.00 0.00 0.00 0.00 0.00 0.00 0.00 0.00 0.00
0.00 0.00 0.00 0.00 0.00 0.00 0.00 0.00 0.00 0.00 0.00 0.00 0.00 0.00 0.00 0.00 0.00 0.00 0.00 0.00 0.00 0.00 0.00 0.00 0.00 0.00 0.00 0.00 0.00 0.00 0.00 0.00 0.00 0.00 0.00 0.00 0.00 0.00 0.00 0.00 0.01 0.01 0.00 0.01 0.01
0.00 0.00 0.00 0.00 0.00 0.00 0.00 0.00 0.00 0.00 0.00 0.00 0.00 0.00 0.00 0.00 0.00 0.00 0.00 0.00 0.00 0.00 0.00 0.00 0.00 0.00 0.00 0.00 0.00 0.00 0.00 0.00 0.00 0.00 0.00 0.00 0.00 0.00 0.00 0.00 0.00 0.00 0.00 0.01 0.01
0.00 0.00 0.00 0.00 0.00 0.00 0.00 0.00 0.00 0.00 0.00 0.00 0.00 0.00 0.00 0.00 0.00 0.00 0.00 0.00 0.00 0.00 0.00 0.00 0.00 0.00 0.00 0.00 0.00 0.00 0.00 0.00 0.00 0.00 0.00 0.00 0.01 0.00 0.00 0.00 0.00 0.00 0.00 0.01 0.02
0.00 0.00 0.00 0.00 0.00 0.00 0.00 0.00 0.00 0.00 0.00 0.00 0.00 0.00 0.00 0.00 0.00 0.00 0.00 0.00 0.00 0.00 0.00 0.00 0.00 0.00 0.00 0.00 0.00 0.00 0.00 0.00 0.00 0.00 0.00 0.00 0.00 0.00 0.00 0.03 0.01 0.00 0.00 0.00 0.00
0.00 0.00 0.00 0.00 0.00 0.00 0.00 0.00 0.00 0.00 0.00 0.00 0.00 0.00 0.00 0.00 0.00 0.00 0.00 0.00 0.00 0.00 0.00 0.00 0.00 0.00 0.00 0.00 0.00 0.00 0.00 0.00 0.00 0.00 0.00 0.00 0.00 0.00 0.00 0.03 0.00 0.00 0.00 0.00 0.00
0.00 0.00 0.00 0.00 0.00 0.00 0.00 0.00 0.00 0.00 0.00 0.00 0.00 0.00 0.00 0.00 0.00 0.00 0.00 0.00 0.00 0.00 0.00 0.00 0.00 0.00 0.00 0.00 0.00 0.00 0.00 0.00 0.00 0.00 0.00 0.00 0.00 0.00 0.00 0.00 0.00 0.00 0.00 0.00 0.00
0.00 0.00 0.00 0.00 0.00 0.00 0.00 0.00 0.00 0.00 0.00 0.00 0.00 0.00 0.00 0.00 0.00 0.00 0.00 0.00 0.00 0.00 0.00 0.00 0.00 0.00 0.00 0.00 0.00 0.00 0.00 0.00 0.00 0.00 0.00 0.00 0.00 0.00 0.00 0.00 0.00 0.00 0.00 0.00 0.00
0.00 0.00 0.00 0.00 0.00 0.00 0.00 0.00 0.00 0.00 0.00 0.00 0.00 0.00 0.00 0.00 0.00 0.00 0.00 0.00 0.00 0.00 0.00 0.00 0.00 0.00 0.00 0.00 0.00 0.00 0.00 0.00 0.00 0.00 0.00 0.00 0.00 0.00 0.00 0.00 0.00 0.00 0.00 0.00 0.00
0.00 0.00 0.00 0.00 0.00 0.00 0.00 0.00 0.00 0.00 0.00 0.00 0.00 0.00 0.00 0.00 0.00 0.00 0.00 0.00 0.00 0.00 0.00 0.00 0.00 0.00 0.00 0.00 0.00 0.00 0.00 0.00 0.00 0.00 0.00 0.00 0.00 0.00 0.00 0.00 0.00 0.00 0.00 0.00 0.00
0.00 0.00 0.00 0.00 0.00 0.00 0.00 0.00 0.00 0.00 0.00 0.00 0.00 0.00 0.00 0.00 0.00 0.00 0.00 0.00 0.00 0.00 0.00 0.00 0.00 0.00 0.00 0.00 0.00 0.00 0.00 0.00 0.00 0.00 0.00 0.00 0.00 0.00 0.00 0.00 0.00 0.00 0.00 0.00 0.00
0.00 0.00 0.00 0.00 0.00 0.00 0.00 0.00 0.00 0.00 0.00 0.00 0.00 0.00 0.00 0.00 0.00 0.00 0.00 0.00 0.00 0.00 0.00 0.00 0.00 0.00 0.00 0.00 0.00 0.00 0.00 0.00 0.00 0.00 0.00 0.00 0.00 0.00 0.00 0.00 0.00 0.00 0.00 0.00 0.00
0.00 0.00 0.00 0.00 0.00 0.00 0.00 0.00 0.00 0.00 0.00 0.00 0.00 0.00 0.00 0.00 0.00 0.00 0.00 0.00 0.00 0.00 0.00 0.00 0.00 0.00 0.00 0.00 0.00 0.00 0.00 0.00 0.00 0.00 0.00 0.00 0.00 0.00 0.00 0.00 0.00 0.00 0.00 0.00 0.00
0.00 0.00 0.00 0.00 0.00 0.00 0.00 0.00 0.00 0.00 0.00 0.00 0.00 0.00 0.00 0.00 0.00 0.00 0.00 0.00 0.00 0.00 0.00 0.00 0.00 0.00 0.00 0.00 0.00 0.00 0.00 0.00 0.00 0.00 0.00 0.00 0.00 0.00 0.00 0.00 0.00 0.00 0.00 0.00 0.00
0.00 0.00 0.00 0.00 0.00 0.00 0.00 0.00 0.00 0.00 0.00 0.00 0.00 0.00 0.00 0.00 0.00 0.00 0.00 0.00 0.00 0.00 0.00 0.00 0.00 0.00 0.00 0.00 0.00 0.00 0.00 0.00 0.00 0.00 0.00 0.00 0.00 0.00 0.00 0.00 0.00 0.00 0.00 0.00 0.00
0.00 0.00 0.00 0.00 0.00 0.00 0.00 0.00 0.00 0.00 0.00 0.00 0.00 0.00 0.00 0.00 0.00 0.00 0.00 0.00 0.00 0.00 0.00 0.00 0.00 0.00 0.00 0.00 0.00 0.00 0.00 0.00 0.00 0.00 0.00 0.00 0.00 0.00 0.00 0.00 0.00 0.00 0.00 0.00 0.00
0.00 0.00 0.00 0.00 0.00 0.00 0.00 0.00 0.00 0.00 0.00 0.00 0.00 0.00 0.00 0.00 0.00 0.00 0.00 0.00 0.00 0.00 0.00 0.00 0.00 0.00 0.00 0.00 0.00 0.00 0.00 0.00 0.00 0.00 0.00 0.00 0.00 0.00 0.00 0.00 0.00 0.00 0.00 0.00 0.00
MSLP
1019.92 1019.58 1019.17 1018.59 1018.00 1017.52 1017.08 1016.73 1016.22 1015.71 1015.45 1015.13 1014.63 1014.36 1013.70 1013.35 1012.83 1012.21 1009.60 1008.76 1008.93 1009.56 1010.00 1009.40 1008.99 1008.59 1008.31 1007.44 1007.30 1006.80 1004.60 1003.42 1003.85 1003.75 1003.66 1003.99 1003.28 1003.41 1003.77 1003.44 1004.90 1005.93 1006.86 1007.87 1008.31
1019.89 1019.22 1018.89 1018.51 1017.90 1017.30 1016.73 1016.43 1015.91 1015.44 1015.09 1014.73 1014.36 1013.97 1013.48 1013.22 1011.72 1009.63 1008.86 1009.12 1009.32 1009.61 1009.06 1008.40 1007.87 1007.92 1006.97 1006.68 1006.61 1005.94 1004.34 1004.28 1004.88 1004.87 1004.67 1004.87 1004.84 1004.64 1004.25 1004.19 1005.43 1005.97 1007.64 1008.37 1008.20
1019.73 1019.33 1018.84 1018.18 1017.65 1016.86 1016.36 1016.03 1015.60 1015.11 1014.68 1014.32 1014.05 1013.60 1013.21 1012.92 1010.43 1008.34 1008.88 1009.28 1009.45 1009.51 1008.63 1007.94 1007.46 1006.98 1006.10 1006.06 1005.99 1005.58 1004.43 1005.07 1005.30 1005.79 1005.48 1005.46 1005.81 1006.17 1005.22 1006.17 1007.40 1006.85 1007.98 1008.21 1008.14
1019.90 1019.40 1018.83 1018.36 1017.37 1016.71 1016.20 1015.58 1015.23 1014.69 1014.18 1013.91 1013.69 1013.20 1012.94 1011.91 1008.76 1008.29 1009.01 1009.30 1009.45 1008.87 1008.40 1007.52 1006.98 1006.19 1005.47 1005.39 1005.79 1005.35 1005.50 1005.62 1005.83 1005.78 1005.82 1006.28 1006.79 1007.44 1007.87 1008.77 1008.91 1008.64 1008.74 1008.92 1009.34
1019.81 1019.22 1018.76 1017.94 1016.86 1016.25 1015.70 1015.27 1014.88 1014.19 1013.67 1013.43 1013.25 1012.89 1012.58 1009.98 1007.75 1008.43 1009.05 1009.29 1008.87 1008.55 1007.65 1006.66 1006.13 1005.63 1005.07 1005.36 1005.78 1005.54 1005.77 1006.12 1006.41 1006.59 1006.80 1007.30 1007.71 1008.19 1008.92 1009.49 1009.72 1009.82 1009.98 1010.10 1010.38
1019.78 1019.20 1018.64 1017.73 1016.58 1015.99 1015.57 1014.82 1014.29 1013.64 1013.06 1012.92 1012.80 1012.80 1011.34 1008.28 1007.74 1008.14 1008.25 1008.59 1007.87 1007.82 1007.19 1006.73 1006.15 1006.01 1005.48 1005.60 1005.55 1005.87 1006.07 1006.32 1006.48 1006.83 1007.07 1007.50 1008.21 1008.46 1009.82 1010.18 1010.49 1010.70 1010.91 1011.24 1011.56
1019.48 1018.98 1018.34 1017.48 1016.27 1015.60 1014.87 1014.62 1013.85 1013.04 1012.47 1012.49 1012.34 1012.21 1010.03 1007.97 1007.64 1007.94 1008.03 1007.71 1007.71 1007.52 1006.93 1007.03 1006.77 1006.21 1005.91 1005.51 1006.10 1006.02 1005.86 1006.29 1006.56 1006.65 1007.00 1007.39 1008.34 1009.35 1010.08 1010.48 1011.36 1011.88 1011.91 1012.36 1012.53
1019.40 1018.75 1018.18 1017.36 1016.15 1015.63 1014.91 1014.29 1013.25 1012.39 1012.27 1012.23 1012.16 1011.45 1008.39 1007.75 1007.65 1007.75 1007.69 1007.54 1007.62 1007.64 1007.63 1007.38 1007.17 1006.29 1005.69 1006.01 1005.88 1005.33 1005.45 1005.09 1006.42 1006.87 1007.06 1007.06 1008.75 1010.20 1010.36 1010.85 1011.44 1012.05 1012.66 1013.11 1013.44
1019.27 1018.48 1017.80 1016.80 1015.72 1014.73 1014.22 1013.53 1012.51 1012.39 1012.39 1012.15 1011.97 1010.22 1007.64 1008.35 1007.47 1006.91 1007.22 1006.78 1007.05 1007.32 1007.39 1007.52 1006.98 1005.71 1005.80 1004.87 1004.59 1004.90 1003.86 1004.55 1006.05 1006.64 1006.71 1006.81 1008.89 1010.52 1010.72 1011.19 1011.59 1012.42 1013.14 1013.78 1014.22
1019.32 1018.64 1017.51 1016.40 1015.45 1014.80 1013.62 1012.79 1012.56 1012.60 1012.02 1011.92 1010.96 1009.72 1007.42 1006.86 1006.80 1006.89 1007.10 1007.03 1006.54 1006.64 1006.73 1006.63 1005.64 1004.69 1004.13 1003.60 1002.47 1003.18 1003.72 1004.57 1005.28 1006.49 1006.75 1007.38 1009.41 1010.63 1011.08 1011.40 1012.12 1013.10 1013.75 1014.05 1014.56
1019.33 1018.64 1017.81 1016.60 1015.68 1014.50 1013.19 1012.38 1012.54 1011.75 1010.73 1010.17 1009.19 1008.40 1007.26 1007.00 1006.92 1006.49 1006.59 1006.55 1006.32 1005.99 1005.11 1005.25 1004.21 1003.07 1003.54 1003.76 1003.48 1003.57 1003.83 1004.98 1006.52 1007.23 1007.32 1008.36 1009.62 1010.68 1011.24 1011.80 1012.42 1013.18 1014.08 1014.57 1015.18
1019.27 1018.68 1017.72 1016.68 1015.76 1014.49 1013.86 1013.04 1013.97 1013.95 1011.53 1009.56 1008.81 1008.22 1007.56 1007.25 1006.21 1006.10 1006.31 1005.80 1005.56 1004.60 1004.96 1004.64 1003.49 1004.11 1004.33 1004.13 1003.79 1003.76 1004.22 1005.52 1006.91 1007.55 1007.71 1008.69 1009.67 1010.67 1011.37 1012.10 1012.71 1013.30 1013.95 1014.62 1015.23
1019.08 1018.60 1017.79 1016.80 1015.46 1014.70 1014.51 1014.03 1014.13 1013.88 1011.65 1008.79 1007.98 1007.18 1006.46 1006.61 1005.67 1005.65 1005.84 1005.27 1004.84 1004.47 1004.03 1003.08 1003.98 1004.61 1004.26 1004.15 1003.96 1004.02 1004.10 1005.30 1005.79 1007.32 1007.69 1008.36 1009.24 1010.31 1011.39 1012.20 1012.94 1013.63 1014.12 1014.51 1014.97
1019.07 1018.61 1018.19 1016.82 1015.50 1015.27 1014.13 1014.26 1013.77 1013.78 1010.62 1008.37 1007.00 1006.14 1006.30 1005.86 1005.47 1005.57 1005.46 1005.17 1004.67 1004.12 1003.81 1003.59 1004.39 1004.19 1003.94 1003.98 1004.19 1004.02 1004.75 1005.14 1005.97 1006.26 1006.07 1007.74 1007.34 1009.28 1010.60 1011.78 1012.46 1013.25 1014.01 1014.60 1015.21
1019.05 1018.67 1018.23 1018.00 1016.54 1015.45 1014.37 1014.11 1013.62 1013.56 1009.18 1007.39 1006.26 1006.06 1005.63 1005.19 1005.06 1005.42 1005.51 1005.20 1004.34 1004.17 1004.23 1004.08 1004.07 1003.97 1003.79 1004.51 1004.54 1004.79 1005.26 1005.33 1005.67 1005.71 1006.28 1006.98 1007.27 1008.40 1009.94 1011.06 1011.96 1012.97 1013.83 1014.45 1015.03
1018.78 1018.55 1018.53 1017.01 1016.28 1015.29 1014.69 1013.85 1013.55 1011.39 1007.63 1006.51 1005.66 1005.37 1005.17 1005.09 1004.99 1005.10 1005.14 1005.30 1005.14 1004.41 1003.92 1004.11 1004.69 1004.33 1004.34 1004.92 1004.79 1005.35 1005.46 1005.68 1005.95 1005.60 1005.42 1006.56 1007.21 1007.37 1008.71 1010.17 1011.52 1012.23 1013.17 1014.10 1014.37
1018.44 1017.89 1017.98 1016.89 1015.04 1015.08 1014.41 1013.00 1011.31 1008.28 1007.03 1006.00 1005.14 1004.93 1004.57 1004.83 1004.91 1004.81 1004.84 1004.88 1004.30 1004.14 1003.90 1004.19 1004.30 1004.72 1004.89 1004.58 1005.18 1005.01 1004.96 1004.44 1004.65 1004.79 1004.97 1007.11 1007.47 1008.73 1009.98 1010.82 1011.31 1011.78 1012.80 1013.67 1014.01
1018.19 1017.29 1016.25 1015.76 1015.60 1015.21 1014.11 1011.70 1009.06 1007.18 1005.98 1005.67 1004.98 1004.72 1004.60 1004.74 1004.83 1004.94 1004.89 1004.88 1005.21 1004.47 1003.87 1003.78 1004.45 1004.75 1005.07 1004.61 1004.27 1004.83 1004.89 1004.60 1004.73 1004.62 1005.13 1007.26 1007.23 1009.44 1010.84 1011.56 1011.91 1012.62 1013.33 1013.89 1014.30
1017.80 1015.73 1015.01 1014.67 1015.01 1015.05 1012.82 1010.12 1007.53 1006.81 1006.39 1005.58 1005.07 1004.64 1004.72 1004.79 1004.70 1004.87 1005.11 1005.26 1005.84 1005.66 1004.59 1004.42 1004.74 1005.59 1005.66 1005.35 1005.40 1005.07 1005.09 1006.20 1005.94 1006.06 1006.16 1006.58 1008.65 1010.27 1011.13 1011.92 1012.57 1013.13 1013.89 1014.40 1014.78
1017.55 1015.53 1014.04 1014.41 1014.62 1014.02 1012.12 1009.56 1008.10 1007.35 1006.80 1006.15 1004.85 1004.57 1004.40 1004.67 1004.74 1004.65 1005.29 1006.56 1006.31 1006.42 1006.09 1005.45 1005.43 1005.81 1006.06 1005.91 1005.96 1005.75 1006.51 1006.20 1005.83 1006.10 1006.40 1006.81 1008.69 1009.62 1011.72 1012.53 1013.19 1013.66 1014.31 1014.99 1015.25
1017.55 1014.94 1014.08 1014.32 1014.36 1013.02 1010.90 1009.25 1008.55 1007.40 1007.08 1006.33 1005.18 1004.90 1004.44 1004.88 1004.73 1005.06 1006.05 1007.13 1007.19 1006.73 1006.42 1006.15 1006.01 1006.15 1006.23 1006.24 1006.04 1006.05 1006.07 1007.10 1007.44 1007.65 1007.72 1008.01 1009.81 1012.60 1013.26 1013.85 1014.11 1014.43 1014.84 1015.35 1015.86
1016.96 1014.08 1013.76 1014.13 1013.27 1012.11 1010.47 1009.93 1009.68 1007.62 1007.00 1006.30 1005.61 1005.05 1004.97 1005.10 1005.31 1005.66 1006.34 1007.27 1008.01 1007.74 1007.09 1007.82 1007.15 1006.35 1007.00 1007.93 1007.67 1007.56 1007.87 1007.97 1007.83 1008.00 1008.58 1009.90 1011.83 1013.88 1014.36 1014.64 1014.87 1014.94 1015.44 1015.89 1016.21
1015.73 1013.97 1013.53 1013.67 1011.88 1011.04 1010.48 1009.95 1009.14 1007.66 1007.04 1006.29 1005.54 1005.40 1005.48 1005.40 1005.85 1006.16 1007.07 1008.23 1008.37 1008.20 1008.34 1008.47 1008.39 1007.71 1008.17 1008.43 1008.37 1008.61 1009.11 1009.37 1009.52 1009.61 1009.68 1010.47 1012.22 1014.53 1015.09 1015.22 1015.49 1015.77 1016.17 1016.27 1016.67
1016.01 1013.55 1012.77 1012.69 1012.34 1011.77 1010.50 1009.57 1008.49 1007.65 1006.99 1006.39 1005.94 1005.60 1005.69 1005.82 1005.77 1006.28 1007.29 1008.26 1008.83 1009.18 1009.69 1009.37 1009.28 1008.65 1008.06 1008.64 1008.80 1009.66 1009.89 1010.08 1009.94 1009.80 1010.40 1011.97 1012.84 1014.37 1015.11 1015.41 1015.74 1016.26 1016.69 1016.78 1016.94
1015.84 1013.73 1013.74 1011.78 1011.60 1011.47 1011.15 1010.12 1008.55 1007.32 1006.79 1006.47 1005.90 1005.37 1005.34 1005.59 1005.83 1006.32 1007.11 1008.02 1009.04 1009.83 1009.90 1009.71 1009.87 1009.62 1009.78 1009.90 1010.25 1010.69 1010.96 1011.05 1011.24 1011.71 1011.87 1013.05 1013.64 1014.85 1015.53 1016.04 1016.44 1016.66 1017.07 1017.25 1017.42
1015.27 1014.14 1013.79 1012.69 1012.28 1011.66 1011.19 1009.72 1008.87 1007.92 1007.26 1006.40 1005.91 1005.73 1005.58 1005.52 1005.47 1006.17 1006.72 1007.37 1008.29 1009.57 1009.87 1010.43 1010.48 1010.34 1010.59 1010.84 1011.02 1011.56 1012.00 1012.32 1012.63 1012.90 1013.31 1013.83 1014.42 1015.95 1016.38 1016.71 1016.97 1017.27 1017.75 1018.08 1018.23
1016.10 1015.55 1014.34 1012.31 1011.69 1011.29 1010.11 1009.82 1008.90 1008.44 1007.79 1007.10 1006.33 1005.92 1006.50 1006.46 1006.33 1007.26 1007.90 1008.59 1008.94 1009.26 1009.96 1010.21 1010.60 1010.33 1010.78 1011.26 1011.53 1011.93 1013.18 1013.36 1013.61 1014.11 1014.39 1014.40 1015.88 1016.47 1016.80 1017.31 1017.62 1018.33 1018.83 1019.12 1019.20
Thickness
5703 5708 5715 5723 5730 5739 5745 5749 5756 5762 5765 5770 5775 5778 5785 5789 5794 5801 5814 5825 5825 5819 5814 5815 5814 5813 5813 5808 5811 5813 5800 5798 5795 5797 5805 5823 5823 5838 5841 5833 5822 5816 5805 5801 5803
5700 5707 5713 5720 5726 5736 5745 5748 5755 5762 5767 5772 5776 5780 5786 5788 5801 5812 5826 5824 5821 5818 5817 5812 5807 5810 5808 5807 5808 5802 5800 5796 5806 5808 5806 5812 5812 5818 5822 5824 5811 5812 5806 5802 5804
5698 5701 5709 5718 5724 5736 5744 5748 5755 5762 5768 5773 5777 5781 5787 5789 5804 5815 5825 5822 5820 5819 5823 5822 5820 5814 5807 5811 5807 5806 5799 5805 5806 5807 5812 5807 5804 5811 5814 5794 5793 5799 5795 5800 5802
5689 5696 5705 5711 5722 5732 5740 5748 5754 5762 5770 5774 5778 5783 5787 5796 5791 5822 5822 5821 5820 5822 5820 5817 5814 5805 5804 5798 5808 5795 5805 5805 5805 5812 5809 5797 5802 5787 5787 5780 5792 5797 5798 5794 5785
5685 5694 5700 5710 5722 5731 5739 5748 5754 5763 5772 5776 5780 5784 5791 5801 5809 5823 5821 5819 5822 5821 5817 5817 5811 5810 5801 5804 5802 5796 5798 5802 5805 5804 5801 5800 5788 5784 5779 5785 5789 5788 5785 5781 5776
5681 5689 5698 5707 5719 5728 5735 5748 5756 5765 5774 5778 5781 5783 5794 5796 5824 5824 5824 5821 5825 5820 5818 5820 5814 5817 5807 5801 5798 5801 5798 5798 5803 5799 5800 5789 5784 5788 5776 5783 5778 5776 5773 5769 5763
5680 5687 5695 5706 5717 5727 5737 5745 5756 5766 5776 5778 5782 5786 5794 5802 5824 5823 5825 5823 5826 5821 5814 5820 5820 5811 5809 5799 5807 5801 5789 5794 5796 5800 5794 5799 5773 5766 5778 5778 5763 5757 5761 5754 5750
5677 5686 5693 5702 5713 5721 5732 5743 5757 5769 5773 5778 5781 5788 5795 5821 5823 5821 5824 5821 5826 5824 5817 5821 5820 5813 5808 5808 5799 5794 5796 5782 5791 5794 5797 5796 5752 5764 5777 5768 5759 5755 5751 5745 5741
5674 5685 5692 5702 5713 5725 5735 5747 5761 5764 5769 5775 5781 5788 5793 5815 5812 5825 5825 5817 5821 5820 5819 5817 5814 5809 5804 5797 5789 5790 5787 5787 5780 5798 5795 5794 5757 5762 5773 5763 5755 5750 5742 5736 5728
5671 5679 5691 5702 5711 5719 5736 5749 5755 5759 5769 5772 5782 5780 5803 5800 5815 5820 5824 5820 5814 5812 5806 5805 5808 5803 5808 5803 5793 5789 5788 5791 5783 5788 5792 5781 5756 5758 5762 5758 5747 5738 5732 5730 5722
5667 5676 5684 5696 5702 5716 5732 5747 5754 5759 5769 5770 5780 5782 5798 5810 5819 5815 5820 5814 5812 5805 5794 5805 5798 5800 5800 5804 5807 5803 5798 5781 5777 5784 5779 5766 5755 5751 5755 5749 5740 5734 5725 5720 5713
5664 5672 5681 5691 5697 5709 5725 5730 5728 5733 5744 5774 5780 5785 5798 5804 5797 5807 5820 5802 5798 5792 5799 5795 5793 5801 5802 5802 5801 5799 5788 5772 5772 5777 5775 5761 5749 5750 5748 5740 5736 5729 5724 5717 5711
5663 5670 5677 5685 5696 5706 5712 5722 5730 5734 5742 5770 5781 5787 5798 5802 5797 5798 5811 5808 5796 5791 5798 5800 5796 5799 5798 5794 5790 5791 5788 5775 5773 5769 5774 5761 5742 5741 5742 5739 5733 5727 5722 5718 5711
5659 5667 5672 5683 5694 5699 5713 5721 5728 5734 5747 5758 5774 5790 5796 5802 5790 5813 5818 5807 5798 5790 5800 5799 5802 5796 5796 5789 5793 5777 5795 5787 5772 5766 5760 5767 5745 5743 5739 5728 5727 5722 5717 5711 5703
5656 5662 5669 5671 5683 5693 5710 5720 5728 5728 5729 5763 5774 5804 5801 5793 5799 5797 5817 5805 5791 5792 5794 5784 5791 5792 5789 5784 5794 5779 5789 5783 5778 5772 5764 5756 5750 5741 5743 5723 5721 5718 5712 5707 5700
5654 5660 5663 5677 5683 5693 5706 5719 5721 5724 5722 5754 5778 5778 5781 5789 5792 5801 5800 5808 5804 5794 5802 5795 5805 5801 5796 5792 5795 5790 5780 5776 5773 5772 5751 5756 5752 5748 5743 5734 5722 5722 5715 5704 5700
5652 5661 5666 5674 5690 5693 5705 5718 5715 5725 5756 5750 5763 5778 5782 5775 5780 5788 5784 5780 5781 5768 5771 5787 5789 5798 5800 5786 5789 5787 5773 5758 5749 5751 5752 5753 5745 5734 5737 5735 5729 5722 5712 5704 5700
5650 5662 5675 5680 5683 5691 5703 5716 5706 5740 5749 5767 5772 5777 5766 5778 5778 5780 5778 5771 5782 5788 5781 5772 5756 5786 5794 5789 5784 5779 5776 5758 5727 5743 5758 5750 5738 5727 5732 5731 5728 5720 5709 5699 5692
5648 5669 5677 5685 5686 5689 5705 5705 5728 5739 5751 5756 5766 5760 5760 5773 5778 5776 5772 5769 5771 5778 5772 5769 5763 5785 5786 5792 5788 5774 5765 5772 5750 5755 5742 5753 5735 5731 5730 5720 5715 5707 5698 5689 5683
5644 5663 5679 5682 5685 5691 5698 5703 5725 5742 5748 5754 5750 5766 5754 5764 5766 5773 5768 5764 5766 5775 5783 5776 5753 5776 5779 5787 5785 5778 5774 5752 5762 5722 5717 5744 5726 5725 5707 5703 5701 5693 5684 5676 5672
5640 5659 5676 5679 5683 5687 5690 5712 5721 5744 5747 5747 5756 5755 5768 5760 5770 5765 5757 5758 5766 5773 5783 5780 5771 5763 5775 5766 5763 5767 5762 5752 5748 5739 5718 5719 5718 5704 5695 5691 5685 5682 5676 5668 5656
5637 5654 5674 5678 5675 5685 5696 5706 5707 5734 5748 5753 5763 5766 5763 5766 5759 5758 5753 5756 5762 5767 5763 5763 5764 5753 5751 5759 5768 5761 5746 5747 5730 5724 5730 5718 5699 5696 5691 5687 5681 5675 5667 5657 5649
5637 5654 5671 5673 5673 5685 5698 5701 5714 5729 5738 5748 5755 5765 5768 5760 5745 5757 5753 5756 5761 5762 5757 5758 5743 5735 5731 5745 5753 5739 5739 5736 5732 5729 5711 5704 5694 5689 5683 5678 5673 5663 5655 5647 5637
5630 5647 5663 5670 5676 5675 5688 5699 5711 5734 5739 5749 5753 5764 5757 5751 5762 5750 5746 5752 5756 5752 5735 5751 5738 5735 5734 5728 5742 5720 5727 5730 5728 5718 5712 5692 5690 5682 5676 5670 5665 5655 5646 5637 5627
5625 5642 5647 5665 5671 5675 5680 5691 5708 5723 5742 5749 5749 5759 5757 5744 5749 5747 5752 5750 5749 5733 5745 5748 5722 5734 5732 5733 5729 5720 5716 5718 5710 5708 5697 5687 5682 5674 5670 5662 5655 5650 5639 5627 5616
5623 5635 5646 5657 5662 5669 5671 5694 5700 5719 5728 5738 5743 5754 5759 5749 5757 5745 5754 5754 5746 5744 5740 5738 5717 5727 5714 5724 5722 5708 5710 5708 5703 5699 5693 5686 5676 5671 5666 5661 5650 5640 5627 5614 5605
5612 5623 5636 5651 5663 5667 5685 5692 5700 5715 5728 5738 5747 5751 5742 5750 5762 5756 5753 5748 5746 5741 5731 5730 5719 5720 5702 5716 5713 5701 5694 5695 5695 5693 5685 5675 5666 5666 5656 5647 5640 5626 5616 5604 5595